Regional Weather Roundup
Issued by NWS Bismarck, ND

Home | Current Version | Previous Version | Text Only | Print | Product List | Glossary On
Versions: 1 2 3 4 5 6 7 8 9 10 11 12 13 14 15 16 17 18 19 20 21 22 23 24 25 26 27 28 29 30 31 32 33 34 35 36 37 38 39 40 41 42 43 44 45 46 47 48 49 50
000
ASUS43 KBIS 300559
RWRBIS

NWR BROADCAST TEXT
NATIONAL WEATHER SERVICE BISMARCK ND
100 AM CDT TUE SEP 30 2014

NOTE: "FAIR" INDICATES FEW OR NO CLOUDS BELOW 12,000 FEET WITH NO
SIGNIFICANT WEATHER AND/OR OBSTRUCTIONS TO VISIBILITY.


CITY           SKY/WX    TMP DP  RH WIND       PRES   REMARKS
WILLISTON      CLOUDY    53  48  83 SE8       29.85F
MINOT          CLOUDY    52  46  80 SE14      29.92F
MINOT AFB      CLOUDY    52  49  90 SE14      29.92F
BISMARCK       CLOUDY    55  49  80 E9        29.92F
DICKINSON      CLOUDY    51  49  92 SE15      29.84F
GARRISON         N/A     53  49  86 SE10      29.90F
HETTINGER ARPT CLOUDY    51  49  92 E15       29.85F
JAMESTOWN      PTCLDY    49  46  90 SE12      29.98F
BEACH            N/A     50  50 100 SE8       29.84S FOG
CARRINGTON     FAIR      46  46 100 SE9       29.99F
CROSBY         CLOUDY    52  50  93 SE14      29.86F
HARVEY         FAIR      46  46 100 E12G18    29.96F
HAZEN          CLOUDY    52  48  87 SE10G16   29.90F
LINTON         CLOUDY    54  50  87 SE13      29.90F
MANDAN         CLOUDY    54  48  82 E13       29.91F
OAKES            N/A     48  48 100 E14       29.99S
RUGBY          CLOUDY    50  48  93 E15       29.97F
WATFORD CITY   CLOUDY    52  48  87 SE9       29.83F
$$

CITY           SKY/WX    TMP DP  RH WIND       PRES   REMARKS
GRAND FORKS    CLEAR     46  43  89 SE8       30.05S
GRAND FORKS AF NOT AVBL
DEVILS LAKE    PTCLDY    48  41  76 E10       29.98F
FARGO          CLEAR     47  43  86 SE7       30.05F
CAVALIER       FAIR      43  41  93 E3        30.05S
GRAFTON        FAIR      45  45 100 SE9       30.06R
GWINNER          N/A     50  48  93 E12       30.01F
LANGDON        FAIR      43  41  93 E8        30.03S
ROLLA          CLOUDY    46  46 100 SE9       30.01F
$$

CITY           SKY/WX    TMP DP  RH WIND       PRES   REMARKS
ABERDEEN       MOCLDY    52  48  86 E8        29.95F
MOBRIDGE       CLOUDY    57  52  83 SE13      29.85F
BUFFALO          N/A     53  52  96 E9        29.75F
RAPID CITY     HVY RAIN  52  52 100 N9        29.77F FOG
GLASGOW        CLOUDY    49  47  93 E15       29.74F
SIDNEY         CLOUDY    54  48  82 S5        29.84F
WOLF POINT     CLOUDY    53  49  86 SE6       29.79F
GLENDIVE       CLOUDY    52  48  87 SE5       29.83S
MILES CITY     CLOUDY    53  50  89 SE13      29.79F
BAKER          CLOUDY    51  51 100 SE14      29.82F FOG
$$

CITY           SKY/WX    TMP DP  RH WIND       PRES   REMARKS
BILLINGS       PTCLDY    50  47  89 S6        29.78S
GREAT FALLS    CLOUDY    55  45  68 SW13      29.68S
$$




USA.gov is the U.S. government's official web portal to all federal, state and local government web resources and services.